Terminal Aerodrome Forecast
Issued by NWS

Home | Current Version | Previous Version | Text Only | Print | Product List | Glossary On
Versions: 1 2 3 4 5 6 7 8 9 10 11 12 13 14 15 16 17 18 19 20 21 22 23 24 25 26 27 28 29 30 31 32 33 34
000
FTAK31 PAFA 200526
TAFABT
TAF
PABT 200526Z 2006/2106 36003KT 1 1/2SM BR SCT002
     FM201400 35004KT 5SM -SN BR SCT025 OVC050
     FM201700 34004KT 2SM -SN BR BKN025 OVC050=

USA.gov is the U.S. government's official web portal to all federal, state and local government web resources and services.